Location: Eindhoven
(51.4416°N, 5.4697°E)
Time: 23:59:15
(UTC+01:00)

deb Explorer IX - Pass Details

Date: 21 November 2019
Orbit: 545 x 1105 km, 38.8° (Epoch: 08 December)

Event Time Altitude Azimuth Distance (km) Brightness Sun altitude
Rises 02:27:22 0° 239° (WSW) 3,700 - -50.2°
Reaches altitude 10° 02:30:41 10° 226° (SW) 2,659 - -49.8°
Maximum altitude 02:35:31 23° 177° (S) 1,751 - -49.2°
Drops below altitude 10° 02:39:51 10° 126° (SE) 2,353 - -48.7°
Sets 02:42:36 0° 112° (ESE) 3,179 - -48.4°
